North Canton, OH

4:35 AM EST on February 23, 2017 (GMT -0500)
Akron-Canton Regional

Weather History for KCAK - January, 2012

Change the Weather History Date:

Sunday, January 15, 2012

  Actual Average Record
Temperature  
Mean Temperature 18 °F 26 °F  
Max Temperature 24 °F 33 °F 63 °F (1932)
Min Temperature 11 °F 19 °F -11 °F (1972)
Degree Days  
Heating Degree Days 47 39  
Month to date heating degree days 515 583  
Since 1 July heating degree days 2426 2913  
Cooling Degree Days 0 0  
Month to date cooling degree days 0 0  
Year to date cooling degree days 0 0  
Moisture  
Dew Point 12 °F    
Average Humidity 74    
Maximum Humidity 88    
Minimum Humidity 59    
Precipitation  
Precipitation T in 0.08 in 1.18 in (1950)
Month to date precipitation 0.78 1.29  
Year to date precipitation 0.78 1.29  
Snow  
Snow T in 0.40 in - ()
Month to date snowfall 6.1 5.9  
Since 1 July snowfall 8.6 19.5  
Snow Depth 2.00 in    
Sea Level Pressure  
Sea Level Pressure 30.40 in    
Wind  
Wind Speed 5 mph (SSW)    
Max Wind Speed 14 mph    
Max Gust Speed 17 mph    
Visibility 6 miles    
Events Snow    
T = Trace of Precipitation, MM = Missing Value Source: NWS Daily Summary

Daily Weather History Graph

Daily Weather History Graph

Search for Another Location

Airport or City:

Trip Planner

Search our weather history database for the weather conditions in past years. The results will help you decide how hot, cold, wet, or windy it might be!

Date:

Astronomy

Jan. 15, 2012 Rise Set
Actual Time 7:48 AM EST 5:21 PM EST
Civil Twilight 7:18 AM EST 5:52 PM EST
Nautical Twilight 6:44 AM EST 6:26 PM EST
Astronomical Twilight 6:11 AM EST 6:59 PM EST
Moon No Moon Rise 11:01 AM EST (1/15)
Length of Visible Light 10h 34m
Length of Day
9h 33m
Waning Gibbous, 58% of the Moon is Illuminated
Jan 15
Waning Gibbous
Jan 16
Last Quarter
Jan 23
New
Jan 30
First Quarter
Feb 7
Full

Hourly Weather History & Observations

Time (EST) Temp. Windchill Dew Point Humidity Pressure Visibility Wind Dir Wind Speed Gust Speed Precip Events Conditions
12:01 AM 19.4 °F 10.4 °F 12.2 °F 74% 30.17 in 5.0 mi NW 6.9 mph - 0.00 in Snow Light Snow
12:51 AM 18.0 °F 11.1 °F 12.0 °F 78% 30.24 in 4.0 mi NNW 4.6 mph - 0.00 in Snow Light Snow
1:51 AM 18.0 °F - 12.0 °F 78% 30.25 in 6.0 mi Calm Calm - 0.00 in Snow Light Snow
2:51 AM 16.0 °F - 10.9 °F 81% 30.28 in 5.0 mi Calm Calm - 0.00 in Snow Light Snow
3:51 AM 15.1 °F - 10.9 °F 84% 30.30 in 4.0 mi Calm Calm - 0.00 in   Scattered Clouds
4:09 AM 15.8 °F - 10.4 °F 79% 30.23 in 4.0 mi Calm Calm - N/A   Overcast
4:51 AM 15.1 °F 9.4 °F 10.9 °F 84% 30.32 in 4.0 mi WNW 3.5 mph - N/A   Overcast
5:51 AM 15.1 °F - 10.0 °F 80% 30.35 in 4.0 mi Calm Calm - N/A   Haze
6:51 AM 12.0 °F 5.9 °F 8.1 °F 84% 30.39 in 4.0 mi NW 3.5 mph - N/A   Overcast
7:51 AM 16.0 °F - 10.9 °F 81% 30.41 in 2.5 mi Calm Calm - 0.00 in Snow Light Snow
8:26 AM 15.8 °F - 10.4 °F 79% 30.37 in 3.0 mi Calm Calm - 0.00 in Snow Light Snow
8:43 AM 15.8 °F - 12.2 °F 86% 30.37 in 2.5 mi Calm Calm - 0.00 in Snow Light Snow
8:51 AM 16.0 °F - 12.0 °F 84% 30.43 in 2.5 mi Calm Calm - 0.00 in Snow Light Snow
9:51 AM 16.0 °F 10.4 °F 12.9 °F 88% 30.47 in 3.0 mi SW 3.5 mph - 0.00 in Snow Light Snow
10:51 AM 19.9 °F 13.4 °F 14.0 °F 78% 30.49 in 3.0 mi SW 4.6 mph - 0.00 in Snow Light Snow
11:51 AM 19.9 °F - 14.0 °F 78% 30.49 in 3.0 mi Calm Calm - 0.00 in Snow Light Snow
12:51 PM 21.9 °F 17.2 °F 12.0 °F 66% 30.48 in 6.0 mi South 3.5 mph - 0.00 in Snow Light Snow
1:03 PM 21.2 °F 13.6 °F 10.4 °F 63% 30.41 in 8.0 mi South 5.8 mph - 0.00 in Snow Light Snow
1:51 PM 23.0 °F - 10.9 °F 60% 30.46 in 8.0 mi Calm Calm - 0.00 in Snow Light Snow
2:51 PM 24.1 °F 19.7 °F 10.9 °F 57% 30.47 in 9.0 mi South 3.5 mph - 0.00 in   Overcast
3:51 PM 24.1 °F 18.2 °F 12.9 °F 62% 30.48 in 7.0 mi SSW 4.6 mph - N/A   Overcast
4:51 PM 23.0 °F 13.9 °F 12.9 °F 65% 30.48 in 8.0 mi SE 8.1 mph - N/A   Mostly Cloudy
5:51 PM 23.0 °F 13.9 °F 12.2 °F 63% 30.43 in 9.0 mi SSW 8.1 mph - N/A   Mostly Cloudy
6:51 PM 19.0 °F 10.0 °F 10.9 °F 71% 30.50 in 9.0 mi South 6.9 mph - N/A   Partly Cloudy
7:51 PM 21.0 °F 10.6 °F 12.0 °F 68% 30.49 in 9.0 mi South 9.2 mph - N/A   Scattered Clouds
8:51 PM 19.9 °F 9.3 °F 10.9 °F 68% 30.48 in 9.0 mi SSE 9.2 mph - N/A   Partly Cloudy
9:51 PM 19.9 °F 7.9 °F 12.0 °F 71% 30.48 in 9.0 mi SSE 11.5 mph - N/A   Mostly Cloudy
10:51 PM 19.9 °F 7.9 °F 10.9 °F 68% 30.44 in 9.0 mi SSE 11.5 mph - N/A   Partly Cloudy
11:51 PM 19.9 °F 6.7 °F 10.9 °F 68% 30.43 in 10.0 mi SSE 13.8 mph - N/A   Partly Cloudy